FW0536 Weather Reports


Display with metric or nautical units.
time (UTC)temp
F
wind
direction
speed
MPH
gust
MPH
rain 1hr
in
rain 24hr
in
rain mn
in
humidity
%
barometer
mb
20221207160037 52 0.0 0.0 0.00 0.00 0.00 72 1022.2
20221207155017 52 0.0 0.0 0.00 0.00 0.00 74 1022.0
20221207154015 51 0.0 0.0 0.00 0.00 0.00 76 1022.0
20221207153018 50 0.0 0.0 0.00 0.00 0.00 77 1021.5
20221207152017 50 0.0 0.0 0.00 0.00 0.00 78 1021.5
20221207151018 49 0.0 0.0 0.00 0.00 0.00 78 1021.4
20221207150037 49 0.0 0.0 0.00 0.00 0.00 80 1021.7
20221207145017 48 0.0 0.0 0.00 0.00 0.00 81 1021.3
20221207144018 48 0.0 0.0 0.00 0.00 0.00 83 1021.3
20221207143017 47 0.0 0.0 0.00 0.00 0.00 83 1021.2
20221207142017 47 0.0 0.0 0.00 0.00 0.00 83 1021.1
20221207141017 46 0.0 0.0 0.00 0.00 0.00 83 1020.9
20221207140017 46 0.0 0.0 0.00 0.00 0.00 83 1020.8
20221207135037 46 0.0 0.0 0.00 0.00 0.00 83 1020.6
20221207134037 46 0.0 0.0 0.00 0.00 0.00 83 1020.5
20221207133017 46 0.0 0.0 0.00 0.00 0.00 82 1020.6
20221207132017 46 0.0 0.0 0.00 0.00 0.00 83 1020.5
20221207131038 46 0.0 0.0 0.00 0.00 0.00 82 1020.2
20221207130017 46 0.0 0.0 0.00 0.00 0.00 81 1020.1
20221207125018 47 0.0 0.0 0.00 0.00 0.00 80 1020.0
20221207124016 47 0.0 0.0 0.00 0.00 0.00 80 1020.3
20221207123018 47 0.0 0.0 0.00 0.00 0.00 80 1020.3
20221207122017 47 0.0 0.0 0.00 0.00 0.00 80 1020.4
20221207121017 47 0.0 0.0 0.00 0.00 0.00 81 1020.3
20221207120017 47 0.0 0.0 0.00 0.00 0.00 81 1020.7
20221207115018 47 0.0 0.0 0.00 0.00 0.00 81 1020.6
20221207114036 47 0.0 0.0 0.00 0.00 0.00 81 1020.5
20221207113017 47 0.0 0.0 0.00 0.00 0.00 81 1020.4
20221207112016 47 0.0 0.0 0.00 0.00 0.00 82 1020.3
20221207111016 47 0.0 0.0 0.00 0.00 0.00 82 1020.3
20221207110016 47 0.0 0.0 0.00 0.00 0.00 82 1020.5
20221207105017 47 0.0 0.0 0.00 0.00 0.00 82 1020.5
20221207104017 47 0.0 0.0 0.00 0.00 0.00 81 1020.5
20221207103016 47 0.0 0.0 0.00 0.00 0.00 81 1020.5
20221207102018 47 0.0 0.0 0.00 0.00 0.00 82 1020.3
20221207101016 47 0.0 0.0 0.00 0.00 0.00 82 1020.5
20221207100017 47 0.0 0.0 0.00 0.00 0.00 82 1020.5
20221207095017 46 0.0 0.0 0.00 0.00 0.00 82 1020.8
20221207094018 47 0.0 0.0 0.00 0.00 0.00 81 1020.8
20221207093038 47 0.0 0.0 0.00 0.00 0.00 82 1020.7
20221207092016 47 0.0 0.0 0.00 0.00 0.00 81 1020.6
20221207091017 47 0.0 0.0 0.00 0.00 0.00 81 1020.4
20221207090017 47 0.0 0.0 0.00 0.00 0.00 80 1020.9
20221207085016 47 0.0 0.0 0.00 0.00 0.00 80 1020.6
20221207084016 47 0.0 0.0 0.00 0.00 0.00 79 1020.4
20221207083016 47 0.0 0.0 0.00 0.00 0.00 80 1020.5
20221207082038 47 0.0 0.0 0.00 0.00 0.00 80 1020.5
20221207081017 47 0.0 0.0 0.00 0.00 0.00 79 1020.2
20221207080037 47 0.0 0.0 0.00 0.00 0.00 79 1020.1
20221207075037 47 0.0 0.0 0.00 0.00 0.00 80 1019.8
20221207074016 47 0.0 2.0 0.00 0.00 0.00 78 1020.0
20221207073016 48 0.0 0.0 0.00 0.00 0.00 79 1019.8
20221207072036 48 113 1.0 3.0 0.00 0.00 0.00 79 1019.8
20221207071018 47 113 1.0 2.0 0.00 0.00 0.00 80 1019.9
20221207070113 46 0.0 0.0 0.00 0.00 0.00 80 1019.5
20221207065018 46 0.0 0.0 0.00 0.00 0.00 80 1019.6
20221207064037 47 0.0 0.0 0.00 0.00 0.00 80 1019.4
20221207063016 47 0.0 0.0 0.00 0.00 0.00 79 1019.4
20221207062016 47 0.0 0.0 0.00 0.00 0.00 79 1019.1
20221207061016 48 0.0 0.0 0.00 0.00 0.00 78 1019.1
20221207060017 49 0.0 0.0 0.00 0.00 0.00 77 1019.1
20221207055016 49 0.0 0.0 0.00 0.00 0.00 77 1018.8
20221207054036 49 0.0 0.0 0.00 0.00 0.00 77 1018.8
20221207053016 49 0.0 1.0 0.00 0.00 0.00 77 1018.7
20221207052016 49 0.0 0.0 0.00 0.00 0.00 77 1018.7
20221207051016 49 0.0 0.0 0.00 0.00 0.00 77 1018.7
20221207050016 49 0.0 0.0 0.00 0.00 0.00 76 1018.5
20221207045016 50 0.0 0.0 0.00 0.00 0.00 76 1018.8
20221207044017 50 0.0 0.0 0.00 0.00 0.00 75 1018.5
20221207043016 51 0.0 0.0 0.00 0.00 0.00 73 1018.4
20221207042016 52 0.0 0.0 0.00 0.00 0.00 73 1017.9
20221207041016 51 0.0 0.0 0.00 0.00 0.00 73 1017.6
20221207040016 52 113 2.0 2.0 0.00 0.00 0.00 71 1017.7
20221207035016 52 113 1.0 2.0 0.00 0.00 0.00 71 1017.2
20221207034016 53 0.0 0.0 0.00 0.00 0.00 70 1017.5
20221207033016 53 0.0 0.0 0.00 0.00 0.00 70 1017.1
20221207032015 53 0.0 0.0 0.00 0.00 0.00 70 1016.8
20221207031015 54 0.0 0.0 0.00 0.00 0.00 68 1016.8
20221207030016 55 0.0 0.0 0.00 0.00 0.00 66 1016.8
20221207025016 55 90 2.0 4.0 0.00 0.00 0.00 65 1016.3
20221207024015 55 0.0 0.0 0.00 0.00 0.00 66 1016.4
20221207023015 55 0.0 0.0 0.00 0.00 0.00 66 1016.1
20221207022017 55 0.0 0.0 0.00 0.00 0.00 66 1016.1
20221207021056 56 0.0 0.0 0.00 0.00 0.00 66 1016.0
20221207020016 56 0.0 0.0 0.00 0.00 0.00 65 1015.8
20221207015015 56 0.0 0.0 0.00 0.00 0.00 64 1015.7
20221207014016 57 0.0 0.0 0.00 0.00 0.00 61 1015.9
20221207013057 58 0.0 0.0 0.00 0.00 0.00 60 1015.8
20221207012015 58 0.0 0.0 0.00 0.00 0.00 60 1015.7
20221207011017 58 0.0 0.0 0.00 0.00 0.00 60 1015.7
20221207010016 58 0.0 0.0 0.00 0.00 0.00 60 1015.4
20221207005016 59 0.0 0.0 0.00 0.00 0.00 59 1015.6
20221207004015 59 0.0 0.0 0.00 0.00 0.00 58 1015.4
20221207003016 60 0.0 0.0 0.00 0.00 0.00 56 1015.6
20221207002017 61 0.0 0.0 0.00 0.00 0.00 54 1015.5
20221207001015 62 0.0 0.0 0.00 0.00 0.00 52 1015.7
20221207000016 63 0.0 0.0 0.00 0.00 0.00 50 1015.5
20221206235016 64 0.0 0.0 0.00 0.00 0.00 48 1015.8
20221206234015 64 0.0 1.0 0.00 0.00 0.00 47 1015.7
20221206233017 64 0.0 2.0 0.00 0.00 0.00 47 1015.7
20221206232015 64 0.0 3.0 0.00 0.00 0.00 48 1015.7
20221206231017 64 0.0 1.0 0.00 0.00 0.00 47 1015.5
20221206230015 65 203 1.0 4.0 0.00 0.00 0.00 46 1015.8
20221206225015 65 203 1.0 4.0 0.00 0.00 0.00 46 1015.9
20221206224015 65 0.0 3.0 0.00 0.00 0.00 46 1015.9
20221206223015 66 203 2.0 6.0 0.00 0.00 0.00 46 1016.2
20221206222015 65 203 3.0 6.0 0.00 0.00 0.00 46 1016.0
20221206221015 65 225 3.0 6.0 0.00 0.00 0.00 46 1015.9
20221206220015 65 225 3.0 7.0 0.00 0.00 0.00 45 1016.0
20221206215016 66 225 3.0 9.0 0.00 0.00 0.00 44 1016.2
20221206214035 66 270 3.0 8.0 0.00 0.00 0.00 43 1016.1
20221206213015 66 225 3.0 9.0 0.00 0.00 0.00 44 1016.2
20221206212015 66 270 3.0 7.0 0.00 0.00 0.00 45 1016.5
20221206211015 66 225 3.0 9.0 0.00 0.00 0.00 45 1016.3
20221206210016 68 225 4.0 9.0 0.00 0.00 0.00 43 1016.6
20221206205056 67 270 4.0 10.0 0.00 0.00 0.00 43 1016.6
20221206204015 67 203 4.0 7.0 0.00 0.00 0.00 43 1017.0
20221206203015 67 270 5.0 12.0 0.00 0.00 0.00 44 1017.0
20221206202015 67 270 7.0 15.0 0.00 0.00 0.00 42 1017.2
20221206201015 67 270 6.0 10.0 0.00 0.00 0.00 44 1017.4
20221206200015 66 270 7.0 11.0 0.00 0.00 0.00 45 1017.6
20221206195015 66 225 3.0 8.0 0.00 0.00 0.00 48 1018.0
20221206194017 66 225 4.0 10.0 0.00 0.00 0.00 48 1018.1
20221206193018 65 225 3.0 8.0 0.00 0.00 0.00 49 1018.0
20221206192015 65 270 5.0 11.0 0.00 0.00 0.00 48 1018.2
20221206191015 65 225 4.0 9.0 0.00 0.00 0.00 49 1018.4
20221206190015 64 270 5.0 10.0 0.00 0.00 0.00 52 1018.3
20221206185036 64 248 4.0 9.0 0.00 0.00 0.00 52 1018.8
20221206184015 63 270 5.0 10.0 0.00 0.00 0.00 54 1018.9
20221206183037 63 270 5.0 12.0 0.00 0.00 0.00 54 1018.8
20221206182018 62 225 2.0 6.0 0.00 0.00 0.00 58 1019.2
20221206181018 61 203 3.0 6.0 0.00 0.00 0.00 57 1019.0
20221206180018 61 293 3.0 9.0 0.00 0.00 0.00 59 1019.1
20221206175017 61 248 2.0 7.0 0.00 0.00 0.00 60 1019.1
20221206174017 60 225 2.0 5.0 0.00 0.00 0.00 60 1019.2
20221206173017 60 225 2.0 4.0 0.00 0.00 0.00 60 1018.9
20221206172017 59 248 2.0 4.0 0.00 0.00 0.00 61 1019.0
20221206171018 59 225 1.0 2.0 0.00 0.00 0.00 62 1018.9
20221206170017 58 225 2.0 5.0 0.00 0.00 0.00 65 1018.6
20221206165017 58 0.0 0.0 0.00 0.00 0.00 66 1019.0
20221206164017 57 0.0 0.0 0.00 0.00 0.00 70 1018.7
20221206163017 56 0.0 0.0 0.00 0.00 0.00 72 1018.7
20221206162017 55 0.0 0.0 0.00 0.00 0.00 75 1018.6
20221206161018 53 0.0 0.0 0.00 0.00 0.00 77 1018.2